ZJW675 ZGZJ-ZSPD

Flight info

Callsign ZJW675
Flight time 1h 44m
Altitude 31100
Route P101 H81 GYA A599 POU G471 XEBUL H22 DST B221 PAMVU V74 BK
Aircraft B737/M-SDE2E3FGHIRWXY/LB1

Departure

Time 2026-05-04 12:51
Airport Zhanjiang Wuchuan International Airport (ZGZJ)

Arrival

Time 2026-05-04 14:36
Airport Shanghai Pudong International Airport (ZSPD)
Time Latitude Longitude Altitude Speed Heading
2026-05-04 12:49 21.48629 110.59027 83 ft 0 kts 326°
2026-05-04 12:49 21.48662 110.59004 85 ft 20 kts 327°
2026-05-04 12:49 21.48836 110.58891 83 ft 25 kts 329°
2026-05-04 12:50 21.48981 110.58800 83 ft 23 kts 329°
2026-05-04 12:50 21.49120 110.58719 85 ft 22 kts 330°
2026-05-04 12:50 21.49249 110.58631 86 ft 22 kts 330°
2026-05-04 12:50 21.49383 110.58622 83 ft 21 kts 51°
2026-05-04 12:51 21.49409 110.58746 83 ft 0 kts 118°
2026-05-04 12:51 21.49276 110.58782 85 ft 34 kts 156°
2026-05-04 12:51 21.48846 110.59075 84 ft 123 kts 150°
2026-05-04 12:52 21.48388 110.59368 237 ft 152 kts 149°
2026-05-04 12:52 21.48368 110.59381 257 ft 151 kts 149°
2026-05-04 12:52 21.47508 110.59906 1567 ft 130 kts 150°
2026-05-04 12:53 21.46664 110.60393 2392 ft 158 kts 149°
2026-05-04 12:53 21.45718 110.61231 2869 ft 197 kts 120°
2026-05-04 12:53 21.45442 110.62762 3183 ft 231 kts 80°
2026-05-04 12:53 21.46219 110.64354 3778 ft 253 kts 53°
2026-05-04 12:54 21.47238 110.65998 4372 ft 274 kts 62°
2026-05-04 12:54 21.48078 110.67904 4959 ft 287 kts 68°
2026-05-04 12:54 21.48905 110.69884 5507 ft 294 kts 57°
2026-05-04 12:54 21.50245 110.71552 6085 ft 296 kts 46°
2026-05-04 12:55 21.51656 110.73158 6723 ft 302 kts 46°
2026-05-04 12:55 21.53082 110.74784 7346 ft 305 kts 46°
2026-05-04 12:55 21.54599 110.76519 8038 ft 332 kts 46°
2026-05-04 12:55 21.56235 110.78396 8733 ft 356 kts 46°
2026-05-04 12:56 21.57976 110.80400 9440 ft 377 kts 46°
2026-05-04 12:56 21.59809 110.82516 10126 ft 395 kts 46°
2026-05-04 12:56 21.61716 110.84720 10767 ft 410 kts 46°
2026-05-04 12:56 21.63685 110.86999 11407 ft 420 kts 46°
2026-05-04 12:57 21.65677 110.89307 12042 ft 422 kts 46°
2026-05-04 12:57 21.67679 110.91630 12707 ft 424 kts 46°
2026-05-04 12:57 21.69692 110.93964 13382 ft 426 kts 46°
2026-05-04 12:57 21.71711 110.96307 14042 ft 430 kts 46°
2026-05-04 12:58 21.73764 110.98690 14663 ft 438 kts 45°
2026-05-04 12:58 21.75858 111.01121 15299 ft 445 kts 45°
2026-05-04 12:58 21.77975 111.03580 15946 ft 451 kts 45°
2026-05-04 12:58 21.80116 111.06069 16599 ft 456 kts 45°
2026-05-04 12:59 21.82282 111.08588 17272 ft 460 kts 45°
2026-05-04 12:59 21.84465 111.11129 17959 ft 463 kts 45°
2026-05-04 12:59 21.86656 111.13680 18610 ft 466 kts 45°
2026-05-04 12:59 21.88860 111.16248 19215 ft 468 kts 45°
2026-05-04 13:00 21.91072 111.18826 19832 ft 469 kts 45°
2026-05-04 13:00 21.93289 111.21412 20460 ft 471 kts 45°
2026-05-04 13:00 21.95514 111.24007 21103 ft 472 kts 45°
2026-05-04 13:00 21.96993 111.25734 21540 ft 473 kts 45°
2026-05-04 13:01 21.99973 111.29213 22436 ft 473 kts 44°
2026-05-04 13:01 22.02184 111.31791 23112 ft 473 kts 44°
2026-05-04 13:01 22.04454 111.34353 23779 ft 472 kts 43°
2026-05-04 13:01 22.06750 111.36882 24366 ft 471 kts 42°
2026-05-04 13:02 22.09054 111.39399 24965 ft 470 kts 42°
2026-05-04 13:02 22.10572 111.41057 25366 ft 470 kts 42°
2026-05-04 13:02 22.13640 111.44415 26187 ft 468 kts 41°
2026-05-04 13:02 22.15916 111.46919 26820 ft 467 kts 41°
2026-05-04 13:03 22.18182 111.49419 27462 ft 465 kts 41°
2026-05-04 13:03 22.20436 111.51911 28122 ft 463 kts 41°
2026-05-04 13:03 22.21919 111.53553 28563 ft 461 kts 41°
2026-05-04 13:03 22.24153 111.56028 29244 ft 458 kts 41°
2026-05-04 13:04 22.26368 111.58484 29944 ft 455 kts 41°
2026-05-04 13:04 22.32184 111.64945 31238 ft 459 kts 41°
2026-05-04 13:04 22.34506 111.67513 31159 ft 473 kts 41°
2026-05-04 13:04 22.38605 111.72046 31263 ft 487 kts 41°
2026-05-04 13:05 22.43408 111.77369 31208 ft 505 kts 41°
2026-05-04 13:05 22.48376 111.82909 31169 ft 518 kts 41°
2026-05-04 13:06 22.53440 111.88566 31166 ft 527 kts 42°
2026-05-04 13:06 22.68679 112.05556 31090 ft 540 kts 42°
2026-05-04 13:06 22.89650 112.28983 31080 ft 545 kts 42°
2026-05-04 13:07 23.02557 112.43646 31128 ft 544 kts 44°
2026-05-04 13:07 23.04780 112.46993 31135 ft 551 kts 60°
2026-05-04 13:07 23.06187 112.50871 31157 ft 554 kts 75°
2026-05-04 13:07 23.06726 112.55007 31152 ft 553 kts 91°
2026-05-04 13:08 23.06525 112.59166 31180 ft 552 kts 96°
2026-05-04 13:08 23.05003 112.77265 31131 ft 553 kts 97°
2026-05-04 13:09 23.03231 113.01982 31136 ft 552 kts 95°
2026-05-04 13:09 23.02783 113.10360 31140 ft 552 kts 96°
2026-05-04 13:10 23.02213 113.18620 31144 ft 552 kts 95°
2026-05-04 13:10 23.02706 113.26945 31154 ft 555 kts 83°
2026-05-04 13:11 23.03795 113.35250 31139 ft 555 kts 82°
2026-05-04 13:11 23.04811 113.43557 31145 ft 555 kts 84°
2026-05-04 13:12 23.05711 113.51885 31143 ft 555 kts 84°
2026-05-04 13:12 23.06577 113.60217 31140 ft 555 kts 84°
2026-05-04 13:13 23.07447 113.68552 31138 ft 555 kts 84°
2026-05-04 13:13 23.08322 113.76884 31138 ft 555 kts 84°
2026-05-04 13:13 23.08971 113.81008 31119 ft 556 kts 72°
2026-05-04 13:14 23.10514 113.84830 31162 ft 552 kts 57°
2026-05-04 13:14 23.12775 113.88142 31135 ft 546 kts 42°
2026-05-04 13:14 23.15623 113.90841 31162 ft 539 kts 33°
2026-05-04 13:15 23.21617 113.95746 31164 ft 540 kts 32°
2026-05-04 13:15 23.27572 114.00774 31162 ft 542 kts 34°
2026-05-04 13:16 23.33477 114.05855 31173 ft 540 kts 33°
2026-05-04 13:16 23.39400 114.10903 31176 ft 541 kts 33°
2026-05-04 13:17 23.45340 114.15967 31169 ft 543 kts 33°
2026-05-04 13:17 23.51282 114.21047 31165 ft 543 kts 33°
2026-05-04 13:18 23.57230 114.26143 31166 ft 544 kts 33°
2026-05-04 13:18 23.63138 114.31210 31174 ft 544 kts 33°
2026-05-04 13:19 23.69127 114.36261 31172 ft 544 kts 32°
2026-05-04 13:19 23.75189 114.41198 31167 ft 544 kts 32°
2026-05-04 13:20 23.81255 114.46137 31188 ft 544 kts 32°
2026-05-04 13:20 23.87325 114.51115 31177 ft 545 kts 32°
2026-05-04 13:21 23.93384 114.56105 31174 ft 545 kts 32°
2026-05-04 13:21 23.99444 114.61102 31180 ft 545 kts 32°
2026-05-04 13:22 24.05509 114.66107 31182 ft 546 kts 32°
2026-05-04 13:22 24.11569 114.71114 31180 ft 546 kts 32°
2026-05-04 13:23 24.17656 114.76149 31190 ft 547 kts 32°
2026-05-04 13:23 24.23689 114.81147 31184 ft 547 kts 32°
2026-05-04 13:24 24.29592 114.86447 31165 ft 556 kts 45°
2026-05-04 13:24 24.34333 114.93185 31180 ft 559 kts 50°
2026-05-04 13:25 24.41296 115.03466 31184 ft 560 kts 50°
2026-05-04 13:25 24.46026 115.10256 31182 ft 560 kts 49°
2026-05-04 13:26 24.50778 115.17034 31181 ft 560 kts 49°
2026-05-04 13:26 24.55524 115.23823 31187 ft 560 kts 49°
2026-05-04 13:27 24.60268 115.30630 31189 ft 561 kts 49°
2026-05-04 13:27 24.65012 115.37451 31191 ft 562 kts 49°
2026-05-04 13:28 24.69768 115.44276 31180 ft 562 kts 49°
2026-05-04 13:28 24.74549 115.51080 31194 ft 562 kts 49°
2026-05-04 13:29 24.79327 115.57888 31200 ft 562 kts 49°
2026-05-04 13:29 24.84101 115.64712 31190 ft 563 kts 49°
2026-05-04 13:30 24.88869 115.71498 31194 ft 564 kts 49°
2026-05-04 13:30 24.93675 115.78336 31202 ft 564 kts 49°
2026-05-04 13:31 24.98482 115.85193 31198 ft 565 kts 49°
2026-05-04 13:31 25.03288 115.92064 31205 ft 566 kts 49°
2026-05-04 13:32 25.23883 116.21623 31108 ft 565 kts 49°
2026-05-04 13:32 25.28665 116.28508 31187 ft 565 kts 49°
2026-05-04 13:33 25.33442 116.35406 31205 ft 565 kts 49°
2026-05-04 13:33 25.56350 116.68586 31111 ft 568 kts 49°
2026-05-04 13:34 25.61666 116.76672 31199 ft 569 kts 52°
2026-05-04 13:34 25.66130 116.83916 31220 ft 570 kts 52°
2026-05-04 13:35 25.72865 116.94792 31237 ft 569 kts 52°
2026-05-04 13:36 25.77391 117.02017 31230 ft 570 kts 52°
2026-05-04 13:36 25.81923 117.09243 31209 ft 571 kts 52°
2026-05-04 13:37 25.86458 117.16494 31222 ft 571 kts 52°
2026-05-04 13:37 25.90977 117.23735 31213 ft 571 kts 52°
2026-05-04 13:38 25.95472 117.30949 31225 ft 571 kts 52°
2026-05-04 13:38 26.00016 117.38255 31232 ft 571 kts 52°
2026-05-04 13:39 26.04529 117.45523 31234 ft 572 kts 52°
2026-05-04 13:39 26.09010 117.52748 31234 ft 570 kts 52°
2026-05-04 13:40 26.13507 117.60013 31227 ft 570 kts 52°
2026-05-04 13:40 26.17997 117.67278 31248 ft 569 kts 52°
2026-05-04 13:41 26.22514 117.74596 31247 ft 570 kts 52°
2026-05-04 13:41 26.26966 117.81820 31244 ft 570 kts 52°
2026-05-04 13:42 26.33688 117.92752 31248 ft 570 kts 52°
2026-05-04 13:42 26.38160 118.00039 31249 ft 570 kts 52°
2026-05-04 13:43 26.42640 118.07350 31253 ft 570 kts 52°
2026-05-04 13:43 26.47111 118.14658 31257 ft 570 kts 52°
2026-05-04 13:44 26.51580 118.21976 31249 ft 569 kts 52°
2026-05-04 13:44 26.55291 118.28060 31265 ft 570 kts 52°
2026-05-04 13:45 26.80631 118.69737 31254 ft 575 kts 52°
2026-05-04 13:45 27.07483 119.14488 31302 ft 574 kts 55°
2026-05-04 13:46 27.11283 119.22415 31311 ft 578 kts 62°
2026-05-04 13:46 27.14765 119.30546 31298 ft 578 kts 62°
2026-05-04 13:47 27.18335 119.38617 31296 ft 577 kts 60°
2026-05-04 13:47 27.31348 119.67239 31124 ft 580 kts 60°
2026-05-04 13:48 27.37700 119.81053 30943 ft 575 kts 59°
2026-05-04 13:48 27.39555 119.85042 31083 ft 574 kts 60°
2026-05-04 13:48 27.41387 119.89028 31207 ft 574 kts 60°
2026-05-04 13:48 27.43207 119.93032 31280 ft 575 kts 60°
2026-05-04 13:49 27.46869 120.01061 31299 ft 579 kts 60°
2026-05-04 13:49 27.50541 120.09093 31308 ft 581 kts 60°
2026-05-04 13:50 27.54227 120.17177 31277 ft 579 kts 60°
2026-05-04 13:50 27.57901 120.25260 31310 ft 579 kts 60°
2026-05-04 13:51 27.61578 120.33362 31282 ft 581 kts 60°
2026-05-04 13:51 27.65260 120.41483 31295 ft 580 kts 60°
2026-05-04 13:52 27.70769 120.53627 31305 ft 578 kts 59°
2026-05-04 13:52 27.72986 120.57364 31271 ft 569 kts 42°
2026-05-04 13:53 27.75888 120.60268 31297 ft 554 kts 27°
2026-05-04 13:53 27.79202 120.62390 31295 ft 540 kts 15°
2026-05-04 13:53 27.82700 120.63735 31281 ft 522 kts
2026-05-04 13:54 27.89744 120.64490 31300 ft 506 kts 353°
2026-05-04 13:54 27.93266 120.64738 31297 ft 507 kts 353°
2026-05-04 13:55 28.03821 120.65679 31295 ft 506 kts 354°
2026-05-04 13:55 28.14344 120.66715 31302 ft 505 kts 355°
2026-05-04 13:56 28.21348 120.67405 31293 ft 505 kts 355°
2026-05-04 13:57 28.31832 120.68437 31259 ft 503 kts 355°
2026-05-04 13:58 28.45742 120.69806 31235 ft 502 kts 355°
2026-05-04 13:58 28.56195 120.70856 31303 ft 503 kts 355°
2026-05-04 13:59 28.63159 120.71561 31270 ft 502 kts 355°
2026-05-04 13:59 28.70101 120.72879 31268 ft 526 kts 13°
2026-05-04 14:00 28.73370 120.74879 31287 ft 539 kts 24°
2026-05-04 14:00 28.82841 120.81967 31275 ft 542 kts 26°
2026-05-04 14:01 28.89166 120.86656 31274 ft 542 kts 25°
2026-05-04 14:02 28.98692 120.93572 31233 ft 540 kts 24°
2026-05-04 14:02 29.01868 120.95875 31050 ft 544 kts 25°
2026-05-04 14:02 29.05058 120.98195 30508 ft 534 kts 24°
2026-05-04 14:02 29.08124 121.00443 30023 ft 518 kts 25°
2026-05-04 14:03 29.11183 121.02670 29481 ft 524 kts 24°
2026-05-04 14:03 29.14277 121.04916 28953 ft 529 kts 25°
2026-05-04 14:03 29.17443 121.07051 28420 ft 524 kts 18°
2026-05-04 14:03 29.20817 121.08506 27940 ft 516 kts
2026-05-04 14:04 29.27683 121.10871 26949 ft 516 kts
2026-05-04 14:04 29.31134 121.12037 26445 ft 516 kts
2026-05-04 14:04 29.34569 121.13228 25960 ft 515 kts 10°
2026-05-04 14:05 29.41419 121.15690 25031 ft 516 kts 11°
2026-05-04 14:05 29.44842 121.16944 24579 ft 516 kts 11°
2026-05-04 14:05 29.48247 121.18198 24120 ft 514 kts 12°
2026-05-04 14:06 29.51642 121.19450 23676 ft 510 kts 12°
2026-05-04 14:06 29.54763 121.20602 23181 ft 505 kts 12°
2026-05-04 14:06 29.57928 121.21770 22682 ft 499 kts 12°
2026-05-04 14:06 29.61179 121.22968 22177 ft 494 kts 12°
2026-05-04 14:07 29.64442 121.24168 21677 ft 490 kts 12°
2026-05-04 14:07 29.67665 121.25354 21176 ft 483 kts 12°
2026-05-04 14:07 29.70848 121.26526 20684 ft 478 kts 12°
2026-05-04 14:07 29.74003 121.27688 20206 ft 474 kts 12°
2026-05-04 14:08 29.77125 121.28838 19729 ft 466 kts 13°
2026-05-04 14:08 29.80146 121.29957 19257 ft 446 kts 13°
2026-05-04 14:08 29.83064 121.31035 18800 ft 435 kts 13°
2026-05-04 14:08 29.85926 121.32090 18334 ft 431 kts 13°
2026-05-04 14:09 29.91535 121.34407 17295 ft 428 kts 22°
2026-05-04 14:09 29.94164 121.36007 16788 ft 426 kts 26°
2026-05-04 14:10 29.99221 121.39330 15779 ft 403 kts 27°
2026-05-04 14:10 30.01611 121.40890 15278 ft 387 kts 27°
2026-05-04 14:10 30.03926 121.42376 14798 ft 375 kts 27°
2026-05-04 14:10 30.06187 121.43808 14327 ft 369 kts 27°
2026-05-04 14:11 30.08438 121.45222 14026 ft 364 kts 27°
2026-05-04 14:11 30.12786 121.47949 13906 ft 354 kts 27°
2026-05-04 14:11 30.15015 121.49345 13922 ft 377 kts 27°
2026-05-04 14:12 30.17408 121.50844 13914 ft 404 kts 27°
2026-05-04 14:12 30.19900 121.52411 13897 ft 410 kts 27°
2026-05-04 14:12 30.24936 121.55582 13896 ft 411 kts 27°
2026-05-04 14:13 30.27440 121.57176 13895 ft 412 kts 28°
2026-05-04 14:13 30.29913 121.58780 13899 ft 412 kts 28°
2026-05-04 14:13 30.32410 121.60404 13898 ft 412 kts 28°
2026-05-04 14:13 30.34913 121.62029 13900 ft 412 kts 28°
2026-05-04 14:14 30.37410 121.63654 13898 ft 412 kts 28°
2026-05-04 14:14 30.42323 121.67080 13901 ft 412 kts 30°
2026-05-04 14:14 30.44769 121.68825 13906 ft 412 kts 30°
2026-05-04 14:15 30.49669 121.72298 13918 ft 412 kts 30°
2026-05-04 14:15 30.54513 121.75711 13125 ft 393 kts 30°
2026-05-04 14:16 30.59237 121.78212 12240 ft 358 kts 11°
2026-05-04 14:16 30.61632 121.78814 11812 ft 346 kts 11°
2026-05-04 14:17 30.66161 121.79997 10998 ft 326 kts 11°
2026-05-04 14:17 30.68361 121.80586 10675 ft 315 kts 12°
2026-05-04 14:17 30.72534 121.81712 10073 ft 307 kts 12°
2026-05-04 14:18 30.74607 121.82274 9736 ft 305 kts 12°
2026-05-04 14:18 30.78622 121.83367 9126 ft 286 kts 12°
2026-05-04 14:19 30.82380 121.84391 8629 ft 271 kts 12°
2026-05-04 14:19 30.84206 121.84889 8391 ft 269 kts 12°
2026-05-04 14:19 30.85975 121.85370 8161 ft 269 kts 12°
2026-05-04 14:19 30.87802 121.85868 8001 ft 269 kts 11°
2026-05-04 14:20 30.89631 121.86367 7915 ft 270 kts 12°
2026-05-04 14:20 30.91448 121.86864 7916 ft 267 kts 12°
2026-05-04 14:20 30.93248 121.87404 7928 ft 269 kts 18°
2026-05-04 14:21 30.96524 121.89494 7921 ft 272 kts 29°
2026-05-04 14:21 30.98123 121.90646 7915 ft 270 kts 30°
2026-05-04 14:21 30.99702 121.91768 7915 ft 268 kts 29°
2026-05-04 14:21 31.01300 121.92884 7919 ft 267 kts 28°
2026-05-04 14:22 31.02895 121.93984 7916 ft 266 kts 28°
2026-05-04 14:22 31.04492 121.95082 7923 ft 266 kts 28°
2026-05-04 14:22 31.06085 121.96175 7922 ft 266 kts 28°
2026-05-04 14:22 31.07791 121.97049 7906 ft 264 kts
2026-05-04 14:23 31.11337 121.96392 7929 ft 262 kts 342°
2026-05-04 14:23 31.13074 121.95730 7925 ft 263 kts 341°
2026-05-04 14:23 31.14819 121.95052 7928 ft 264 kts 341°
2026-05-04 14:24 31.16567 121.94376 7926 ft 265 kts 341°
2026-05-04 14:24 31.18321 121.93703 7920 ft 266 kts 341°
2026-05-04 14:24 31.20089 121.93029 7920 ft 266 kts 341°
2026-05-04 14:24 31.21254 121.92586 7921 ft 266 kts 341°
2026-05-04 14:25 31.23018 121.91918 7922 ft 267 kts 341°
2026-05-04 14:25 31.26520 121.90594 7909 ft 258 kts 341°
2026-05-04 14:25 31.28750 121.89753 7904 ft 248 kts 341°
2026-05-04 14:26 31.29834 121.89344 7797 ft 250 kts 341°
2026-05-04 14:26 31.31515 121.88709 7350 ft 255 kts 341°
2026-05-04 14:26 31.33213 121.88068 6892 ft 258 kts 341°
2026-05-04 14:26 31.34927 121.87421 6429 ft 259 kts 341°
2026-05-04 14:27 31.36648 121.86772 5955 ft 261 kts 341°
2026-05-04 14:27 31.38357 121.86127 5492 ft 263 kts 341°
2026-05-04 14:27 31.40106 121.85467 5018 ft 265 kts 340°
2026-05-04 14:27 31.41849 121.84803 4531 ft 262 kts 338°
2026-05-04 14:28 31.43350 121.83691 4018 ft 253 kts 310°
2026-05-04 14:28 31.44169 121.81928 3551 ft 245 kts 282°
2026-05-04 14:28 31.44300 121.79971 3094 ft 239 kts 263°
2026-05-04 14:28 31.44020 121.78060 2628 ft 236 kts 256°
2026-05-04 14:29 31.43168 121.74446 1994 ft 217 kts 236°
2026-05-04 14:29 31.40888 121.72755 1973 ft 192 kts 191°
2026-05-04 14:30 31.39558 121.72749 1984 ft 193 kts 172°
2026-05-04 14:30 31.38233 121.73174 1990 ft 198 kts 165°
2026-05-04 14:30 31.35587 121.74228 2077 ft 197 kts 165°
2026-05-04 14:31 31.34276 121.74698 1934 ft 194 kts 166°
2026-05-04 14:31 31.31924 121.75585 1976 ft 171 kts 165°
2026-05-04 14:32 31.29614 121.76462 2001 ft 180 kts 165°
2026-05-04 14:32 31.28433 121.76909 1998 ft 177 kts 165°
2026-05-04 14:32 31.27249 121.77359 1984 ft 176 kts 165°
2026-05-04 14:32 31.26107 121.77792 1984 ft 174 kts 165°
2026-05-04 14:33 31.24943 121.78232 1860 ft 179 kts 165°
2026-05-04 14:33 31.23774 121.78675 1644 ft 180 kts 165°
2026-05-04 14:33 31.22592 121.79123 1392 ft 174 kts 164°
2026-05-04 14:33 31.21488 121.79541 1151 ft 161 kts 164°
2026-05-04 14:34 31.20440 121.79906 872 ft 150 kts 164°
2026-05-04 14:34 31.19563 121.80275 795 ft 123 kts 160°
2026-05-04 14:34 31.18730 121.80627 612 ft 133 kts 160°
2026-05-04 14:34 31.17861 121.80970 511 ft 131 kts 162°
2026-05-04 14:35 31.16956 121.81288 261 ft 138 kts 161°
2026-05-04 14:35 31.16066 121.81615 75 ft 130 kts 162°
2026-05-04 14:35 31.15246 121.81921 22 ft 108 kts 162°
2026-05-04 14:35 31.14818 121.82086 21 ft 53 kts 161°
2026-05-04 14:36 31.14484 121.82185 22 ft 31 kts 170°
2026-05-04 14:36 31.14310 121.82175 24 ft 23 kts 198°
2026-05-04 14:36 31.14157 121.82138 22 ft 22 kts 185°
2026-05-04 14:36 31.14009 121.82173 22 ft 21 kts 164°
2026-05-04 14:37 31.13868 121.82226 22 ft 23 kts 163°
2026-05-04 14:37 31.13705 121.82278 21 ft 7 kts 184°
2026-05-04 14:37 31.13673 121.82238 22 ft 13 kts 239°
2026-05-04 14:37 31.13623 121.82085 22 ft 28 kts 252°
2026-05-04 14:38 31.13566 121.81878 22 ft 24 kts 249°
2026-05-04 14:38 31.13515 121.81706 23 ft 23 kts 252°
2026-05-04 14:38 31.13487 121.81581 22 ft 9 kts 274°
2026-05-04 14:38 31.13524 121.81532 22 ft 8 kts 332°
2026-05-04 14:39 31.13579 121.81503 22 ft 10 kts 333°
2026-05-04 14:39 31.13606 121.81497 22 ft 4 kts 18°
2026-05-04 14:39 31.13633 121.81553 22 ft 15 kts 102°